Regional Weather Roundup
Issued by NWS Wilmington, NC

Home | Current Version | Previous Version | Text Only | Print | Product List | Glossary On
Versions: 1 2 3 4 5 6 7 8 9 10 11 12 13 14 15 16 17 18 19 20 21 22 23 24 25 26 27 28 29 30 31 32 33 34 35 36 37 38 39 40 41 42 43 44 45 46 47 48 49 50
000
ASUS42 KILM 230713
RWRILM
RWRILM
REGIONAL HOURLY WEATHER ROUNDUP
NATIONAL WEATHER SERVICE WILMINGTON NC
300 AM EDT SAT MAY 23 2015

NOTE: "FAIR" INDICATES FEW OR NO CLOUDS BELOW 12,000 FEET WITH NO
SIGNIFICANT WEATHER AND/OR OBSTRUCTIONS TO VISIBILITY.

...............WFO WILMINGTON COUNTY WARNING AREA...............

......COASTAL NC AND SC COUNTIES......

CITY           SKY/WX    TMP DP  RH WIND       PRES   REMARKS
WILMINGTON     CLEAR     57  55  93 CALM      30.28S
N MYRTLE BEACH CLEAR     58  57  97 N3        30.27S
MYRTLE BEACH   CLEAR     61  55  82 CALM      30.29S

......INLAND NC AND SC COUNTIES.......

CITY           SKY/WX    TMP DP  RH WIND       PRES   REMARKS
LUMBERTON      CLEAR     52  50  93 CALM      30.28S
ELIZABETHTOWN  CLEAR     55  52  90 CALM      30.28S
WHITEVILLE     CLEAR     55  53  94 CALM      30.27F
FLORENCE       CLEAR     56  52  86 CALM      30.28S
DARLINGTON     CLEAR     55  48  76 CALM      30.30S

....................REST OF NORTH CAROLINA......................

.........EASTERN NC.........

CITY           SKY/WX    TMP DP  RH WIND       PRES   REMARKS
CAPE HATTERAS  CLEAR     49  46  90 W3        30.27S
JACKSONVILLE   CLEAR     50  45  81 CALM      30.29S
MOREHEAD CITY  CLEAR     56  54  93 CALM      30.28S
KENANSVILLE    CLEAR     50  49  97 CALM      30.30R
NEW BERN       FOG       53  50  89 CALM      30.29S VSB 1
ELIZABETH CITY CLEAR     57  54  89 SW6       30.26S

.........CENTRAL NC.........

CITY           SKY/WX    TMP DP  RH WIND       PRES   REMARKS
RALEIGH DURHAM PTCLDY    50  48  93 CALM      30.30R
ROCKY MOUNT    CLEAR     51  50  96 CALM      30.29R
ROANOKE RAPIDS NOT AVBL
FAYETTEVILLE   CLEAR     54  50  86 CALM      30.29R
HOFFMAN        CLEAR     50  49  97 N2        30.33S

.........WESTERN NC.........

CITY           SKY/WX    TMP DP  RH WIND       PRES   REMARKS
CHARLOTTE      CLEAR     55  46  71 N3        30.31R
GREENSBORO     PTCLDY    54  47  77 CALM      30.31R
HICKORY        NOT AVBL
BOONE          NOT AVBL
ASHEVILLE      NOT AVBL

.....................REST OF SOUTH CAROLINA.....................

.........EASTERN SC.........

CITY           SKY/WX    TMP DP  RH WIND       PRES   REMARKS
CHARLESTON     CLEAR     62  59  90 NE6       30.25F
BEAUFORT MCAS  CLEAR     65  63  93 NE6       30.24F
HILTON HEAD    CLEAR     70  63  78 N3        30.25S

.........CENTRAL SC.........

CITY           SKY/WX    TMP DP  RH WIND       PRES   REMARKS
COLUMBIA       CLEAR     54  48  80 CALM      30.27S
ORANGEBURG     CLEAR     58  54  86 CALM      30.27S
SUMTER SHAW    CLEAR     55  48  80 NE5       30.26S

.........WESTERN SC.........

CITY           SKY/WX    TMP DP  RH WIND       PRES   REMARKS
GREENVILLE     NOT AVBL
ROCK HILL      CLEAR     49  46  90 CALM      30.30S
ANDERSON       CLEAR     60  47  61 NE6       30.29R
CLEMSON        NOT AVBL
GREENWOOD      CLEAR     51  48  89 CALM      30.30R


...................COASTAL AND OFFSHORE REPORTS..................

................LOCAL PIERS AND NC RESERVE................


STATION/POSITION TIME  SKY/WX   TEMP    WIND        PRES    VSBY
                                AIR SEA DIR/SP/G
                 (UTC)          (F)     (DEG/KT/KT) (MB)    (MI)
JOHNY MRCER PIER 0600            67 77  340/  4/  5 1024.6F
NC RESRV MASNBRO NOT AVBL
OCEAN CREST PIER 0702            60 76  330/  5/  7 1024.3F
SPRINGMAID  PIER 0600            70 75   50/  7/  9 1024.9F


................COASTAL AND OFFSHORE BUOYS................


STATION/POSITION TIME  SKY/WX   TEMP    WIND        PRES    VSBY
                                AIR SEA DIR/SP/G
                 (UTC)          (F)     (DEG/KT/KT) (MB)    (MI)
DIMNDSHOAL 41025 0650            68 77  320/  4/  6 1025.1F
WVE H/P(F/S)=  3/ 9 SWL H/P/D(F/S/D)=  3/ 70/ 9

CAPE LOOKOUT     0700            67     360/  1/  1 1025.0F
ONSLOW BAY 41036 NOT AVBL
5 WRITEBCH 41038 0608            71 76   60/  8/ 12 1025.0F
MASONBORO  41110 0619               76                N/A
WVE H/P(F/S)=  1/ 9 WND WVE H/P(F/S)=  2/ 9

WILM HARBR 41108 0611               75                N/A
WVE H/P(F/S)=  2/ 9 WND WVE H/P(F/S)=  2/ 9

27WRITEBCH 41037 0600            67 77   50/  8/  8   N/A
FRYING PAN 41013 0650            71 74   40/ 12/ 16 1025.2F
WVE H/P(F/S)=  2/ 6 WND WVE H/P(F/S)=  2/ 5 SWL H/P/D(F/S/D)=  2/110/ 6

SUNST NRSH 41024 0608            67      40/  6/  8 1024.8F
CAPRS NRSH 41029 0608            72      70/ 12/ 16 1024.5F
EDISTO     41004 0650            72 75   40/ 16/ 17 1023.4F
WVE H/P(F/S)=  3/ 6 WND WVE H/P(F/S)=  3/ 6 SWL H/P/D(F/S/D)=  2/ 8



..........OFFSHORE BUOYS BEYOND 100 NM OFFSHORE...........
.....IN A TRIANGLE---HAT TO BERMUDA TO BAHAMAS TO HAT.....


STATION/POSITION TIME  SKY/WX   TEMP    WIND        PRES    VSBY
                                AIR SEA DIR/SP/G
                 (UTC)          (F)     (DEG/KT/KT) (MB)    (MI)
150E HAT   41001 NOT AVBL
W BERMUDA  41048 0650            73 74   CALM  /  2 1021.7F
WVE H/P(F/S)=  4/ 6 WND WVE H/P(F/S)=  2/ 4 SWL H/P/D(F/S/D)=  3/250/ 6

ATLANTIC S 41049 0650            76 78  100/  6/  8 1023.5F
WVE H/P(F/S)=  3/ 7 WND WVE H/P(F/S)=  2/ 3 SWL H/P/D(F/S/D)=  2/140/ 7

E BAHAMAS  41046 0650            80 81  100/ 10/ 12 1020.6S
WVE H/P(F/S)=  3/10 WND WVE H/P(F/S)=  2/ 4 SWL H/P/D(F/S/D)=  2/ 50/10

NE BAHAMAS 41047 0650            78 78  130/  4/  4 1021.3F
WVE H/P(F/S)=  2/10 SWL H/P/D(F/S/D)=  2/ 80/10

120E CANVRL41010 0620            79 81  350/  6/  8 1020.8F

END


USA.gov is the U.S. government's official web portal to all federal, state and local government web resources and services.